START_TIME,STEP,MOV.,M34,t_acc.,L5,t_acc.,L18,t_acc.,L14,t_acc.
1979-07-04 00:00:25.530 ,0,0,0.,12.0,0.,12.0,0.,12.0,0.,12.0
1979-07-04 00:00:37.530 ,0,0,0.,12.0,0.,12.0,0.,12.0,0.,12.0
1979-07-04 00:00:49.530 ,1,1,0.,12.0,0.,12.0,0.,12.0,0.,12.0
1979-07-04 00:01:01.530 ,1,1,0.,12.0,0.,12.0,0.,12.0,0.,12.0
1979-07-04 00:01:13.530 ,1,0,0.,12.0,0.,12.0,0.,12.0,0.,12.0
1979-07-04 00:01:25.530 ,1,0,0.,12.0,0.,12.0,0.,12.0,0.,12.0
1979-07-04 00:01:37.530 ,2,1,0.,12.0,0.,12.0,0.,12.0,0.,12.0
1979-07-04 00:01:49.530 ,2,1,0.,12.0,0.,12.0,0.,12.0,0.,12.0
1979-07-04 00:02:01.530 ,2,0,0.,12.0,0.,12.0,0.,12.0,0.,12.0
1979-07-04 00:02:13.530 ,2,0,0.,12.0,0.,12.0,0.,12.0,0.,12.0
1979-07-04 00:02:25.530 ,3,1,0.,12.0,0.,12.0,0.,12.0,0.,12.0
1979-07-04 00:02:37.530 ,3,1,0.,12.0,0.,12.0,0.,12.0,0.,12.0
1979-07-04 00:02:49.530 ,3,0,0.,12.0,0.,12.0,0.,12.0,0.,12.0
1979-07-04 00:03:01.530 ,3,0,0.,12.0,0.,12.0,0.,12.0,0.,12.0
1979-07-04 00:03:13.530 ,4,1,0.,12.0,0.,12.0,0.,12.0,0.,12.0
1979-07-04 00:03:25.530 ,4,1,0.,12.0,0.,12.0,0.,12.0,0.,12.0
1979-07-04 00:03:37.530 ,4,0,0.,12.0,0.,12.0,0.,12.0,0.,12.0
1979-07-04 00:03:49.530 ,4,0,0.,12.0,0.,12.0,0.,12.0,0.,12.0
1979-07-04 00:04:01.530 ,5,1,0.,12.0,0.,12.0,0.,12.0,0.,12.0
1979-07-04 00:04:13.530 ,5,1,0.,12.0,0.,12.0,0.,12.0,0.,12.0
1979-07-04 00:04:25.530 ,5,0,0.,12.0,0.,12.0,0.,12.0,0.,12.0
1979-07-04 00:04:37.530 ,5,0,0.,12.0,0.,12.0,0.,12.0,0.,12.0
1979-07-04 00:04:49.530 ,6,1,0.,12.0,0.,12.0,0.,12.0,0.,12.0
1979-07-04 00:05:01.530 ,6,1,0.,12.0,0.,12.0,0.,12.0,0.,12.0
1979-07-04 00:05:13.530 ,6,0,0.,12.0,0.,12.0,0.,12.0,0.,12.0
1979-07-04 00:05:25.530 ,6,0,0.,12.0,0.,12.0,0.,12.0,0.,12.0
1979-07-04 00:05:37.530 ,7,1,0.,12.0,0.,12.0,0.,12.0,0.,12.0
1979-07-04 00:05:49.530 ,7,1,0.,12.0,0.,12.0,0.,12.0,0.,12.0
1979-07-04 00:06:01.530 ,7,0,0.,12.0,0.,12.0,0.,12.0,0.,12.0
1979-07-04 00:06:13.530 ,7,0,0.,12.0,0.,12.0,0.,12.0,0.,12.0
1979-07-04 00:06:25.530 ,7,1,0.,12.0,0.,12.0,0.,12.0,0.,12.0
1979-07-04 00:06:37.530 ,7,1,0.,12.0,0.,12.0,0.,12.0,0.,12.0
1979-07-04 00:06:49.530 ,7,0,0.,12.0,0.,12.0,0.,12.0,0.,12.0
1979-07-04 00:07:01.530 ,7,0,0.,12.0,0.,12.0,0.,12.0,0.,12.0
1979-07-04 00:07:13.530 ,6,1,0.,12.0,0.,12.0,0.,12.0,0.,12.0
1979-07-04 00:07:25.530 ,6,1,0.,12.0,0.,12.0,0.,12.0,0.,12.0
1979-07-04 00:07:37.530 ,6,0,0.,12.0,0.,12.0,0.,12.0,0.,12.0
1979-07-04 00:07:49.530 ,6,0,0.,12.0,0.,12.0,0.,12.0,0.,12.0
1979-07-04 00:08:01.530 ,5,1,0.,12.0,0.,12.0,0.,12.0,0.,12.0
1979-07-04 00:08:13.530 ,5,1,0.,12.0,0.,12.0,0.,12.0,0.,12.0
1979-07-04 00:08:25.530 ,5,0,0.,12.0,0.,12.0,0.,12.0,0.,12.0
1979-07-04 00:08:37.530 ,5,0,0.,12.0,0.,12.0,0.,12.0,0.,12.0
1979-07-04 00:08:49.530 ,4,1,0.,12.0,0.,12.0,0.,12.0,0.,12.0
1979-07-04 00:09:01.530 ,4,1,0.,12.0,0.,12.0,0.,12.0,0.,12.0
1979-07-04 00:09:13.530 ,4,0,0.,12.0,0.,12.0,0.,12.0,0.,12.0
1979-07-04 00:09:25.530 ,4,0,0.,12.0,0.,12.0,0.,12.0,0.,12.0
1979-07-04 00:09:37.530 ,3,1,0.,12.0,0.,12.0,0.,12.0,0.,12.0
1979-07-04 00:09:49.530 ,3,1,0.,12.0,0.,12.0,0.,12.0,0.,12.0
1979-07-04 00:10:01.530 ,3,0,0.,12.0,0.,12.0,0.,12.0,0.,12.0
1979-07-04 00:10:13.530 ,3,0,0.,12.0,0.,12.0,0.,12.0,0.,12.0
1979-07-04 00:10:25.530 ,2,1,0.,12.0,0.,12.0,0.,12.0,0.,12.0
1979-07-04 00:10:37.530 ,2,1,0.,12.0,0.,12.0,0.,12.0,0.,12.0
1979-07-04 00:10:49.530 ,2,0,0.,12.0,0.,12.0,0.,12.0,0.,12.0
1979-07-04 00:11:01.530 ,2,0,0.,12.0,0.,12.0,0.,12.0,0.,12.0
1979-07-04 00:11:13.530 ,1,1,0.,12.0,0.,12.0,0.,12.0,0.,12.0
1979-07-04 00:11:25.530 ,1,1,0.,12.0,0.,12.0,0.,12.0,0.,12.0
1979-07-04 00:11:37.530 ,1,0,0.,12.0,0.,12.0,0.,12.0,0.,12.0
1979-07-04 00:11:49.530 ,1,0,0.,12.0,0.,12.0,0.,12.0,0.,12.0
1979-07-04 00:12:01.530 ,0,1,0.,12.0,0.,12.0,0.,12.0,0.,12.0
1979-07-04 00:12:13.530 ,0,1,0.,12.0,0.,12.0,0.,12.0,0.,12.0
1979-07-04 00:12:25.530 ,0,0,0.,12.0,0.,12.0,0.,12.0,0.,12.0
1979-07-04 00:12:37.530 ,0,0,0.,12.0,0.,12.0,0.,12.0,0.,12.0
1979-07-04 00:12:49.530 ,0,1,0.,12.0,0.,12.0,0.,12.0,0.,12.0
1979-07-04 00:13:01.530 ,0,1,0.,12.0,0.,12.0,0.,12.0,0.,12.0
1979-07-04 00:13:13.530 ,0,0,0.,12.0,0.,12.0,0.,12.0,0.,12.0
1979-07-04 00:13:25.530 ,0,0,0.,12.0,0.,12.0,0.,12.0,0.,12.0
1979-07-04 00:13:37.530 ,1,1,0.,12.0,0.,12.0,0.,12.0,0.,12.0
1979-07-04 00:13:49.530 ,1,1,0.,12.0,0.,12.0,0.,12.0,0.,12.0
1979-07-04 00:14:01.530 ,1,0,0.,12.0,0.,12.0,0.,12.0,0.,12.0
1979-07-04 00:14:13.530 ,1,0,0.,12.0,0.,12.0,0.,12.0,0.,12.0
1979-07-04 00:14:25.530 ,2,1,0.,12.0,0.,12.0,0.,12.0,0.,12.0
1979-07-04 00:14:37.530 ,2,1,0.,12.0,0.,12.0,0.,12.0,0.,12.0
1979-07-04 00:14:49.530 ,2,0,0.,12.0,0.,12.0,0.,12.0,0.,12.0
1979-07-04 00:15:01.530 ,2,0,0.,12.0,0.,12.0,0.,12.0,0.,12.0
1979-07-04 00:15:13.530 ,3,1,0.,12.0,0.,12.0,0.,12.0,0.,12.0
1979-07-04 00:15:25.530 ,3,1,0.,12.0,0.,12.0,0.,12.0,0.,12.0
1979-07-04 00:15:37.530 ,3,0,0.,12.0,0.,12.0,0.,12.0,0.,12.0
1979-07-04 00:15:49.530 ,3,0,0.,12.0,0.,12.0,0.,12.0,0.,12.0
1979-07-04 00:16:01.530 ,4,1,0.,12.0,0.,12.0,0.,12.0,0.,12.0
1979-07-04 00:16:13.530 ,4,1,0.,12.0,0.,12.0,0.,12.0,0.,12.0
1979-07-04 00:16:25.530 ,4,0,0.,12.0,0.,12.0,0.,12.0,0.,12.0
1979-07-04 00:16:37.530 ,4,0,0.,12.0,0.,12.0,0.,12.0,0.,12.0
1979-07-04 00:16:49.530 ,5,1,0.,12.0,0.,12.0,0.,12.0,0.,12.0
1979-07-04 00:17:01.530 ,5,1,0.,12.0,0.,12.0,0.,12.0,0.,12.0
1979-07-04 00:17:13.530 ,5,0,0.,12.0,0.,12.0,0.,12.0,0.,12.0
1979-07-04 00:17:25.530 ,5,0,0.,12.0,0.,12.0,0.,12.0,0.,12.0
1979-07-04 00:17:37.530 ,6,1,0.,12.0,0.,12.0,0.,12.0,0.,12.0
1979-07-04 00:17:49.530 ,6,1,0.,12.0,0.,12.0,0.,12.0,0.,12.0
1979-07-04 00:18:01.530 ,6,0,0.,12.0,0.,12.0,0.,12.0,0.,12.0
1979-07-04 00:18:13.530 ,6,0,0.,12.0,0.,12.0,0.,12.0,0.,12.0
1979-07-04 00:18:25.530 ,7,0,0.,12.0,0.,12.0,0.,12.0,0.,12.0
1979-07-04 00:18:37.530 ,7,0,0.,12.0,0.,12.0,0.,12.0,0.,12.0
1979-07-04 00:18:49.530 ,7,0,0.,12.0,0.,12.0,0.,12.0,0.,12.0
1979-07-04 00:19:01.530 ,7,0,0.,12.0,0.,12.0,0.,12.0,0.,12.0
1979-07-04 00:19:13.530 ,4,1,0.,12.0,0.,12.0,0.,12.0,0.,12.0
1979-07-04 00:19:25.530 ,4,1,0.,12.0,0.,12.0,0.,12.0,0.,12.0
1979-07-04 00:19:37.530 ,0,1,0.,12.0,0.,12.0,0.,12.0,0.,12.0
1979-07-04 00:19:49.530 ,0,1,0.,12.0,0.,12.0,0.,12.0,0.,12.0
1979-07-04 00:20:01.530 ,3,1,0.,12.0,0.,12.0,0.,12.0,0.,12.0
1979-07-04 00:20:13.530 ,3,1,0.,12.0,0.,12.0,0.,12.0,0.,12.0
1979-07-04 00:20:25.530 ,7,1,0.,12.0,0.,12.0,0.,12.0,0.,12.0
1979-07-04 00:20:37.530 ,7,1,0.,12.0,0.,12.0,0.,12.0,0.,12.0
1979-07-04 00:20:49.530 ,4,1,0.,12.0,0.,12.0,0.,12.0,0.,12.0
1979-07-04 00:21:01.530 ,4,1,0.,12.0,0.,12.0,0.,12.0,0.,12.0
1979-07-04 00:21:13.530 ,0,1,0.,12.0,0.,12.0,0.,12.0,0.,12.0
1979-07-04 00:21:25.530 ,0,1,0.,12.0,0.,12.0,0.,12.0,0.,12.0
1979-07-04 00:21:37.530 ,3,1,0.,12.0,0.,12.0,0.,12.0,0.,12.0
1979-07-04 00:21:49.530 ,3,1,0.,12.0,0.,12.0,0.,12.0,0.,12.0
1979-07-04 00:22:01.530 ,7,1,0.,12.0,0.,12.0,0.,12.0,0.,12.0
1979-07-04 00:22:13.530 ,7,1,0.,12.0,0.,12.0,0.,12.0,0.,12.0
1979-07-04 00:22:25.530 ,4,1,0.,12.0,0.,12.0,0.,12.0,0.,12.0
1979-07-04 00:22:37.530 ,4,1,0.,12.0,0.,12.0,0.,12.0,0.,12.0
1979-07-04 00:22:49.530 ,0,1,0.,12.0,0.,12.0,0.,12.0,0.,12.0
1979-07-04 00:23:01.530 ,0,1,0.,12.0,0.,12.0,0.,12.0,0.,12.0
1979-07-04 00:23:13.530 ,3,1,0.,12.0,0.,12.0,0.,12.0,0.,12.0
1979-07-04 00:23:25.530 ,3,1,0.,12.0,0.,12.0,0.,12.0,0.,12.0
1979-07-04 00:23:37.530 ,7,1,0.,12.0,0.,12.0,0.,12.0,0.,12.0
1979-07-04 00:23:49.530 ,7,1,0.,12.0,0.,12.0,0.,12.0,0.,12.0
1979-07-04 00:24:01.530 ,4,1,0.,12.0,0.,12.0,0.,12.0,0.,12.0
1979-07-04 00:24:13.530 ,4,1,0.,12.0,0.,12.0,0.,12.0,0.,12.0
1979-07-04 00:24:25.530 ,0,1,0.,12.0,0.,12.0,0.,12.0,0.,12.0
1979-07-04 00:24:37.530 ,0,1,1.,12.0,0.,12.0,0.,12.0,0.,12.0
1979-07-04 00:24:49.530 ,3,1,1.,12.0,0.,12.0,0.,12.0,0.,12.0
1979-07-04 00:25:01.530 ,3,1,0.,12.0,0.,12.0,0.,12.0,0.,12.0
1979-07-04 00:25:13.530 ,7,1,0.,12.0,0.,12.0,0.,12.0,0.,12.0
1979-07-04 00:25:25.530 ,7,1,0.,12.0,0.,12.0,0.,12.0,0.,12.0
1979-07-04 00:25:37.530 ,4,1,0.,12.0,0.,12.0,0.,12.0,0.,12.0
1979-07-04 00:25:49.530 ,4,1,0.,12.0,0.,12.0,0.,12.0,0.,12.0
1979-07-04 00:26:01.530 ,0,1,0.,12.0,0.,12.0,0.,12.0,0.,12.0
1979-07-04 00:26:13.530 ,0,1,0.,12.0,0.,12.0,0.,12.0,0.,12.0
1979-07-04 00:26:25.530 ,3,1,0.,12.0,0.,12.0,0.,12.0,0.,12.0
1979-07-04 00:26:37.530 ,3,1,0.,12.0,0.,12.0,0.,12.0,0.,12.0
1979-07-04 00:26:49.530 ,7,1,0.,12.0,0.,12.0,0.,12.0,0.,12.0
1979-07-04 00:27:01.530 ,7,1,0.,12.0,0.,12.0,0.,12.0,0.,12.0
1979-07-04 00:27:13.530 ,4,1,0.,12.0,0.,12.0,0.,12.0,0.,12.0
1979-07-04 00:27:25.530 ,4,1,0.,12.0,0.,12.0,0.,12.0,0.,12.0
1979-07-04 00:27:37.530 ,0,1,0.,12.0,0.,12.0,0.,12.0,0.,12.0
1979-07-04 00:27:49.530 ,0,1,0.,12.0,0.,12.0,0.,12.0,0.,12.0
1979-07-04 00:28:01.530 ,3,1,0.,12.0,0.,12.0,0.,12.0,0.,12.0
1979-07-04 00:28:13.530 ,3,1,0.,12.0,0.,12.0,0.,12.0,0.,12.0
1979-07-04 00:28:25.530 ,7,1,0.,12.0,0.,12.0,0.,12.0,0.,12.0
1979-07-04 00:28:37.530 ,7,1,0.,12.0,0.,12.0,0.,12.0,0.,12.0
1979-07-04 00:28:49.530 ,4,1,0.,12.0,0.,12.0,0.,12.0,0.,12.0
1979-07-04 00:29:01.530 ,4,1,0.,12.0,0.,12.0,0.,12.0,0.,12.0
1979-07-04 00:29:13.530 ,0,1,0.,12.0,0.,12.0,0.,12.0,0.,12.0
1979-07-04 00:29:25.530 ,0,1,0.,12.0,0.,12.0,0.,12.0,0.,12.0
1979-07-04 00:29:37.530 ,0,0,0.,12.0,0.,12.0,0.,12.0,0.,12.0
1979-07-04 00:29:49.530 ,0,0,0.,12.0,0.,12.0,0.,12.0,0.,12.0
1979-07-04 00:30:01.530 ,0,0,0.,12.0,0.,12.0,0.,12.0,0.,12.0
1979-07-04 00:30:13.530 ,0,0,0.,12.0,0.,12.0,0.,12.0,0.,12.0
1979-07-04 00:30:25.530 ,5,1,0.,12.0,0.,12.0,0.,12.0,0.,12.0
1979-07-04 00:30:37.530 ,5,1,0.,12.0,0.,12.0,0.,12.0,0.,12.0
1979-07-04 00:30:49.530 ,5,0,0.,12.0,0.,12.0,0.,12.0,0.,12.0
1979-07-04 00:31:01.530 ,5,0,0.,12.0,0.,12.0,0.,12.0,0.,12.0
1979-07-04 00:31:13.530 ,4,1,0.,12.0,0.,12.0,0.,12.0,0.,12.0
1979-07-04 00:31:25.530 ,4,1,0.,12.0,0.,12.0,0.,12.0,0.,12.0
1979-07-04 00:31:37.530 ,4,0,0.,12.0,0.,12.0,0.,12.0,0.,12.0
1979-07-04 00:31:49.530 ,4,0,0.,12.0,0.,12.0,0.,12.0,0.,12.0
1979-07-04 00:32:01.530 ,3,1,0.,12.0,0.,12.0,0.,12.0,0.,12.0
1979-07-04 00:32:13.530 ,3,1,0.,12.0,0.,12.0,0.,12.0,0.,12.0
1979-07-04 00:32:25.530 ,3,0,0.,12.0,0.,12.0,0.,12.0,0.,12.0
1979-07-04 00:32:37.530 ,3,0,0.,12.0,0.,12.0,0.,12.0,0.,12.0
1979-07-04 00:32:49.530 ,2,1,0.,12.0,0.,12.0,0.,12.0,0.,12.0
1979-07-04 00:33:01.530 ,2,1,0.,12.0,0.,12.0,0.,12.0,0.,12.0
1979-07-04 00:33:13.530 ,2,0,0.,12.0,0.,12.0,0.,12.0,0.,12.0
1979-07-04 00:33:25.530 ,2,0,0.,12.0,0.,12.0,0.,12.0,0.,12.0
1979-07-04 00:33:37.530 ,1,1,0.,12.0,0.,12.0,0.,12.0,0.,12.0
1979-07-04 00:33:49.530 ,1,1,0.,12.0,0.,12.0,0.,12.0,0.,12.0
1979-07-04 00:34:01.530 ,1,0,0.,12.0,0.,12.0,0.,12.0,0.,12.0
1979-07-04 00:34:13.530 ,1,0,0.,12.0,0.,12.0,0.,12.0,0.,12.0
1979-07-04 00:34:25.530 ,0,1,0.,12.0,0.,12.0,0.,12.0,0.,12.0
1979-07-04 00:34:37.530 ,0,1,0.,12.0,0.,12.0,0.,12.0,0.,12.0
1979-07-04 00:34:49.530 ,0,0,0.,12.0,0.,12.0,0.,12.0,0.,12.0
1979-07-04 00:35:01.530 ,0,0,0.,12.0,0.,12.0,0.,12.0,0.,12.0
1979-07-04 00:35:13.530 ,0,1,0.,12.0,0.,12.0,0.,12.0,0.,12.0
1979-07-04 00:35:25.530 ,0,1,0.,12.0,0.,12.0,0.,12.0,0.,12.0
1979-07-04 00:35:37.530 ,0,0,0.,12.0,0.,12.0,0.,12.0,0.,12.0
1979-07-04 00:35:49.530 ,0,0,0.,12.0,0.,12.0,0.,12.0,0.,12.0
1979-07-04 00:36:01.530 ,1,1,0.,12.0,0.,12.0,0.,12.0,0.,12.0
1979-07-04 00:36:13.530 ,1,1,0.,12.0,0.,12.0,0.,12.0,0.,12.0
1979-07-04 00:36:25.530 ,1,0,0.,12.0,0.,12.0,0.,12.0,0.,12.0
1979-07-04 00:36:37.530 ,1,0,0.,12.0,0.,12.0,0.,12.0,0.,12.0
1979-07-04 00:36:49.530 ,2,1,0.,12.0,0.,12.0,0.,12.0,0.,12.0
1979-07-04 00:37:01.530 ,2,1,0.,12.0,0.,12.0,0.,12.0,0.,12.0
1979-07-04 00:37:13.530 ,2,0,0.,12.0,0.,12.0,0.,12.0,0.,12.0
1979-07-04 00:37:25.530 ,2,0,0.,12.0,0.,12.0,0.,12.0,0.,12.0
1979-07-04 00:37:37.530 ,3,1,0.,12.0,0.,12.0,0.,12.0,0.,12.0
1979-07-04 00:37:49.530 ,3,1,0.,12.0,0.,12.0,0.,12.0,0.,12.0
1979-07-04 00:38:01.530 ,3,0,0.,12.0,0.,12.0,0.,12.0,0.,12.0
1979-07-04 00:38:13.530 ,3,0,0.,12.0,0.,12.0,0.,12.0,0.,12.0
1979-07-04 00:38:25.530 ,4,1,0.,12.0,0.,12.0,0.,12.0,0.,12.0
1979-07-04 00:38:37.530 ,4,1,0.,12.0,0.,12.0,0.,12.0,0.,12.0
1979-07-04 00:38:49.530 ,4,0,0.,12.0,0.,12.0,0.,12.0,0.,12.0
1979-07-04 00:39:01.530 ,4,0,0.,12.0,0.,12.0,0.,12.0,0.,12.0
1979-07-04 00:39:13.530 ,5,1,0.,12.0,0.,12.0,0.,12.0,0.,12.0
1979-07-04 00:39:25.530 ,5,1,0.,12.0,0.,12.0,0.,12.0,0.,12.0
1979-07-04 00:39:37.530 ,5,0,0.,12.0,0.,12.0,0.,12.0,0.,12.0
1979-07-04 00:39:49.530 ,5,0,0.,12.0,0.,12.0,0.,12.0,0.,12.0
1979-07-04 00:40:01.530 ,6,1,0.,12.0,0.,12.0,0.,12.0,0.,12.0
1979-07-04 00:40:13.530 ,6,1,0.,12.0,0.,12.0,0.,12.0,0.,12.0
1979-07-04 00:40:25.530 ,6,0,0.,12.0,0.,12.0,0.,12.0,0.,12.0
1979-07-04 00:40:37.530 ,6,0,0.,12.0,0.,12.0,0.,12.0,0.,12.0
1979-07-04 00:40:49.530 ,7,1,0.,12.0,0.,12.0,0.,12.0,0.,12.0
1979-07-04 00:41:01.530 ,7,1,0.,12.0,0.,12.0,0.,12.0,0.,12.0
1979-07-04 00:41:13.530 ,7,0,0.,12.0,0.,12.0,0.,12.0,0.,12.0
1979-07-04 00:41:25.530 ,7,0,0.,12.0,0.,12.0,0.,12.0,0.,12.0
1979-07-04 00:41:37.530 ,7,1,0.,12.0,0.,12.0,0.,12.0,0.,12.0
1979-07-04 00:41:49.530 ,7,1,0.,12.0,0.,12.0,0.,12.0,0.,12.0
1979-07-04 00:42:01.530 ,7,0,0.,12.0,0.,12.0,0.,12.0,0.,12.0
1979-07-04 00:42:13.530 ,7,0,0.,12.0,0.,12.0,0.,12.0,0.,12.0
1979-07-04 00:42:25.530 ,6,1,0.,12.0,0.,12.0,0.,12.0,0.,12.0
1979-07-04 00:42:37.530 ,6,1,0.,12.0,0.,12.0,0.,12.0,0.,12.0
1979-07-04 00:42:49.530 ,6,0,0.,12.0,0.,12.0,0.,12.0,0.,12.0
1979-07-04 00:43:01.530 ,6,0,0.,12.0,0.,12.0,0.,12.0,0.,12.0
1979-07-04 00:43:13.530 ,5,1,0.,12.0,0.,12.0,0.,12.0,0.,12.0
1979-07-04 00:43:25.530 ,5,1,0.,12.0,0.,12.0,0.,12.0,0.,12.0
1979-07-04 00:43:37.530 ,5,0,0.,12.0,0.,12.0,0.,12.0,0.,12.0
1979-07-04 00:43:49.530 ,5,0,0.,12.0,0.,12.0,0.,12.0,0.,12.0
1979-07-04 00:44:01.530 ,4,1,0.,12.0,0.,12.0,0.,12.0,0.,12.0
1979-07-04 00:44:13.530 ,4,1,0.,12.0,0.,12.0,0.,12.0,0.,12.0
1979-07-04 00:44:25.530 ,4,0,0.,12.0,0.,12.0,0.,12.0,0.,12.0
1979-07-04 00:44:37.530 ,4,0,0.,12.0,0.,12.0,0.,12.0,0.,12.0
1979-07-04 00:44:49.530 ,3,1,0.,12.0,0.,12.0,0.,12.0,0.,12.0
1979-07-04 00:45:01.530 ,3,1,0.,12.0,0.,12.0,0.,12.0,0.,12.0
1979-07-04 00:45:13.530 ,3,0,0.,12.0,0.,12.0,0.,12.0,0.,12.0
1979-07-04 00:45:25.530 ,3,0,0.,12.0,0.,12.0,0.,12.0,0.,12.0
1979-07-04 00:45:37.530 ,2,1,0.,12.0,0.,12.0,0.,12.0,0.,12.0
1979-07-04 00:45:49.530 ,2,1,0.,12.0,0.,12.0,0.,12.0,0.,12.0
1979-07-04 00:46:01.530 ,2,0,0.,12.0,0.,12.0,0.,12.0,0.,12.0
1979-07-04 00:46:13.530 ,2,0,0.,12.0,0.,12.0,0.,12.0,0.,12.0
1979-07-04 00:46:25.530 ,1,1,0.,12.0,0.,12.0,0.,12.0,0.,12.0
1979-07-04 00:46:37.530 ,1,1,0.,12.0,0.,12.0,0.,12.0,0.,12.0
1979-07-04 00:46:49.530 ,1,0,0.,12.0,0.,12.0,0.,12.0,0.,12.0
1979-07-04 00:47:01.530 ,1,0,0.,12.0,0.,12.0,0.,12.0,0.,12.0
1979-07-04 00:47:13.530 ,0,1,0.,12.0,0.,12.0,0.,12.0,0.,12.0
1979-07-04 00:47:25.530 ,0,1,0.,12.0,0.,12.0,0.,12.0,0.,12.0
1979-07-04 00:47:37.530 ,0,0,0.,12.0,0.,12.0,0.,12.0,0.,12.0
1979-07-04 00:47:49.530 ,0,0,0.,12.0,0.,12.0,0.,12.0,0.,12.0
1979-07-04 00:48:01.530 ,0,1,0.,12.0,0.,12.0,0.,12.0,0.,12.0
1979-07-04 00:48:13.530 ,0,1,0.,12.0,0.,12.0,0.,12.0,0.,12.0
1979-07-04 00:48:25.530 ,0,0,0.,12.0,0.,12.0,0.,12.0,0.,12.0
1979-07-04 00:48:37.530 ,0,0,0.,12.0,0.,12.0,0.,12.0,0.,12.0
1979-07-04 00:48:49.530 ,1,1,0.,12.0,0.,12.0,0.,12.0,0.,12.0
1979-07-04 00:49:01.530 ,1,1,0.,12.0,0.,12.0,0.,12.0,0.,12.0
1979-07-04 00:49:13.530 ,1,0,0.,12.0,0.,12.0,0.,12.0,0.,12.0
1979-07-04 00:49:25.530 ,1,0,0.,12.0,0.,12.0,0.,12.0,0.,12.0
1979-07-04 00:49:37.530 ,2,1,0.,12.0,0.,12.0,0.,12.0,0.,12.0
1979-07-04 00:49:49.530 ,2,1,0.,12.0,0.,12.0,0.,12.0,0.,12.0
1979-07-04 00:50:01.530 ,2,0,0.,12.0,0.,12.0,0.,12.0,0.,12.0
1979-07-04 00:50:13.530 ,2,0,0.,12.0,0.,12.0,0.,12.0,0.,12.0
1979-07-04 00:50:25.530 ,3,1,0.,12.0,0.,12.0,0.,12.0,0.,12.0
1979-07-04 00:50:37.530 ,3,1,0.,12.0,0.,12.0,0.,12.0,0.,12.0
1979-07-04 00:50:49.530 ,3,0,0.,12.0,0.,12.0,0.,12.0,0.,12.0
1979-07-04 00:51:01.530 ,3,0,0.,12.0,0.,12.0,0.,12.0,0.,12.0
1979-07-04 00:51:13.530 ,4,1,0.,12.0,0.,12.0,0.,12.0,0.,12.0
1979-07-04 00:51:25.530 ,4,1,0.,12.0,0.,12.0,0.,12.0,0.,12.0
1979-07-04 00:51:37.530 ,4,0,0.,12.0,0.,12.0,0.,12.0,0.,12.0
1979-07-04 00:51:49.530 ,4,0,0.,12.0,0.,12.0,0.,12.0,0.,12.0
1979-07-04 00:52:01.530 ,5,1,0.,12.0,0.,12.0,0.,12.0,0.,12.0
1979-07-04 00:52:13.530 ,5,1,0.,12.0,0.,12.0,0.,12.0,0.,12.0
1979-07-04 00:52:25.530 ,5,0,0.,12.0,0.,12.0,0.,12.0,0.,12.0
1979-07-04 00:52:37.530 ,5,0,0.,12.0,0.,12.0,0.,12.0,0.,12.0
1979-07-04 00:52:49.530 ,6,1,0.,12.0,0.,12.0,0.,12.0,0.,12.0
1979-07-04 00:53:01.530 ,6,1,0.,12.0,0.,12.0,0.,12.0,0.,12.0
1979-07-04 00:53:13.530 ,6,0,0.,12.0,0.,12.0,0.,12.0,0.,12.0
1979-07-04 00:53:25.530 ,6,0,0.,12.0,0.,12.0,0.,12.0,0.,12.0
1979-07-04 00:53:37.530 ,7,1,0.,12.0,0.,12.0,0.,12.0,0.,12.0
1979-07-04 00:53:49.530 ,7,1,0.,12.0,0.,12.0,0.,12.0,0.,12.0
1979-07-04 00:54:01.530 ,7,0,0.,12.0,0.,12.0,0.,12.0,0.,12.0
1979-07-04 00:54:13.530 ,7,0,0.,12.0,0.,12.0,0.,12.0,0.,12.0
1979-07-04 00:54:25.530 ,7,1,0.,12.0,0.,12.0,0.,12.0,0.,12.0
1979-07-04 00:54:37.530 ,7,1,0.,12.0,0.,12.0,0.,12.0,0.,12.0
1979-07-04 00:54:49.530 ,7,0,0.,12.0,0.,12.0,0.,12.0,0.,12.0
1979-07-04 00:55:01.530 ,7,0,0.,12.0,0.,12.0,0.,12.0,0.,12.0
1979-07-04 00:55:13.530 ,6,1,0.,12.0,0.,12.0,0.,12.0,0.,12.0
1979-07-04 00:55:25.530 ,6,1,0.,12.0,0.,12.0,0.,12.0,0.,12.0
1979-07-04 00:55:37.530 ,6,0,0.,12.0,0.,12.0,0.,12.0,0.,12.0
1979-07-04 00:55:49.530 ,6,0,0.,12.0,0.,12.0,0.,12.0,0.,12.0
1979-07-04 00:56:01.530 ,5,1,0.,12.0,0.,12.0,0.,12.0,0.,12.0
1979-07-04 00:56:13.530 ,5,1,0.,12.0,0.,12.0,0.,12.0,0.,12.0
1979-07-04 00:56:25.530 ,5,0,0.,12.0,0.,12.0,0.,12.0,0.,12.0
1979-07-04 00:56:37.530 ,5,0,0.,12.0,0.,12.0,0.,12.0,0.,12.0
1979-07-04 00:56:49.530 ,4,1,0.,12.0,0.,12.0,0.,12.0,0.,12.0
1979-07-04 00:57:01.530 ,4,1,0.,12.0,0.,12.0,0.,12.0,0.,12.0
1979-07-04 00:57:13.530 ,4,0,0.,12.0,0.,12.0,0.,12.0,0.,12.0
1979-07-04 00:57:25.530 ,4,0,0.,12.0,0.,12.0,0.,12.0,0.,12.0
1979-07-04 00:57:37.530 ,3,1,0.,12.0,0.,12.0,0.,12.0,0.,12.0
1979-07-04 00:57:49.530 ,3,1,0.,12.0,0.,12.0,0.,12.0,0.,12.0
1979-07-04 00:58:01.530 ,3,0,0.,12.0,0.,12.0,0.,12.0,0.,12.0
1979-07-04 00:58:13.530 ,3,0,0.,12.0,0.,12.0,0.,12.0,0.,12.0
1979-07-04 00:58:25.530 ,2,1,0.,12.0,0.,12.0,0.,12.0,0.,12.0
1979-07-04 00:58:37.530 ,2,1,0.,12.0,0.,12.0,0.,12.0,0.,12.0
1979-07-04 00:58:49.530 ,2,0,0.,12.0,0.,12.0,0.,12.0,0.,12.0
1979-07-04 00:59:01.530 ,2,0,0.,12.0,0.,12.0,0.,12.0,0.,12.0
1979-07-04 00:59:13.530 ,1,1,0.,12.0,0.,12.0,0.,12.0,0.,12.0
1979-07-04 00:59:25.530 ,1,1,1.,12.0,0.,12.0,0.,12.0,0.,12.0
1979-07-04 00:59:37.530 ,1,0,0.,12.0,0.,12.0,0.,12.0,0.,12.0
1979-07-04 00:59:49.530 ,1,0,0.,12.0,0.,12.0,0.,12.0,0.,12.0
1979-07-04 01:00:01.530 ,0,1,0.,12.0,0.,12.0,0.,12.0,0.,12.0
1979-07-04 01:00:13.530 ,0,1,0.,12.0,0.,12.0,0.,12.0,0.,12.0
1979-07-04 01:00:25.530 ,0,0,0.,12.0,0.,12.0,0.,12.0,0.,12.0
1979-07-04 01:00:37.530 ,0,0,0.,12.0,0.,12.0,0.,12.0,0.,12.0
1979-07-04 01:00:49.530 ,0,1,0.,12.0,0.,12.0,0.,12.0,0.,12.0
1979-07-04 01:01:01.530 ,0,1,0.,12.0,0.,12.0,0.,12.0,0.,12.0
1979-07-04 01:01:13.530 ,0,0,0.,12.0,0.,12.0,0.,12.0,0.,12.0
1979-07-04 01:01:25.530 ,0,0,0.,12.0,0.,12.0,0.,12.0,0.,12.0
1979-07-04 01:01:37.530 ,1,1,0.,12.0,0.,12.0,0.,12.0,0.,12.0
1979-07-04 01:01:49.530 ,1,1,0.,12.0,0.,12.0,0.,12.0,0.,12.0
1979-07-04 01:02:01.530 ,1,0,0.,12.0,0.,12.0,0.,12.0,0.,12.0
1979-07-04 01:02:13.530 ,1,0,1.,12.0,0.,12.0,0.,12.0,0.,12.0
1979-07-04 01:02:25.530 ,2,1,0.,12.0,0.,12.0,0.,12.0,0.,12.0
1979-07-04 01:02:37.530 ,2,1,0.,12.0,0.,12.0,0.,12.0,0.,12.0
1979-07-04 01:02:49.530 ,2,0,0.,12.0,0.,12.0,0.,12.0,0.,12.0
1979-07-04 01:03:01.530 ,2,0,0.,12.0,0.,12.0,0.,12.0,0.,12.0
1979-07-04 01:03:13.530 ,3,1,0.,12.0,0.,12.0,0.,12.0,0.,12.0
1979-07-04 01:03:25.530 ,3,1,0.,12.0,0.,12.0,0.,12.0,0.,12.0
1979-07-04 01:03:37.530 ,3,0,0.,12.0,0.,12.0,0.,12.0,0.,12.0
1979-07-04 01:03:49.530 ,3,0,0.,12.0,0.,12.0,0.,12.0,0.,12.0
1979-07-04 01:04:01.530 ,4,1,0.,12.0,0.,12.0,0.,12.0,0.,12.0
1979-07-04 01:04:13.530 ,4,1,0.,12.0,0.,12.0,0.,12.0,1.,12.0
1979-07-04 01:04:25.530 ,4,0,0.,12.0,0.,12.0,0.,12.0,0.,12.0
1979-07-04 01:04:37.530 ,4,0,0.,12.0,0.,12.0,0.,12.0,0.,12.0
1979-07-04 01:04:49.530 ,5,1,0.,12.0,0.,12.0,0.,12.0,0.,12.0
1979-07-04 01:05:01.530 ,5,1,0.,12.0,0.,12.0,0.,12.0,0.,12.0
1979-07-04 01:05:13.530 ,5,0,1.,12.0,0.,12.0,0.,12.0,0.,12.0
1979-07-04 01:05:25.530 ,5,0,0.,12.0,0.,12.0,0.,12.0,0.,12.0
1979-07-04 01:05:37.530 ,6,1,0.,12.0,0.,12.0,0.,12.0,0.,12.0
1979-07-04 01:05:49.530 ,6,1,0.,12.0,0.,12.0,0.,12.0,0.,12.0
1979-07-04 01:06:01.530 ,6,0,0.,12.0,0.,12.0,0.,12.0,0.,12.0
1979-07-04 01:06:13.530 ,6,0,0.,12.0,0.,12.0,0.,12.0,0.,12.0
1979-07-04 01:06:25.530 ,7,0,0.,12.0,0.,12.0,0.,12.0,0.,12.0
1979-07-04 01:06:37.530 ,7,0,0.,12.0,0.,12.0,0.,12.0,0.,12.0
1979-07-04 01:06:49.530 ,7,0,0.,12.0,0.,12.0,0.,12.0,0.,12.0
1979-07-04 01:07:01.530 ,7,0,0.,12.0,0.,12.0,0.,12.0,0.,12.0
1979-07-04 01:07:13.530 ,4,1,0.,12.0,0.,12.0,0.,12.0,0.,12.0
1979-07-04 01:07:25.530 ,4,1,0.,12.0,0.,12.0,0.,12.0,0.,12.0
1979-07-04 01:07:37.530 ,0,1,0.,12.0,0.,12.0,0.,12.0,0.,12.0
1979-07-04 01:07:49.530 ,0,1,0.,12.0,0.,12.0,0.,12.0,0.,12.0
1979-07-04 01:08:01.530 ,3,1,0.,12.0,0.,12.0,0.,12.0,0.,12.0
1979-07-04 01:08:13.530 ,3,1,0.,12.0,0.,12.0,0.,12.0,0.,12.0
1979-07-04 01:08:25.530 ,7,1,0.,12.0,0.,12.0,0.,12.0,0.,12.0
1979-07-04 01:08:37.530 ,7,1,0.,12.0,0.,12.0,0.,12.0,0.,12.0
1979-07-04 01:08:49.530 ,4,1,0.,12.0,0.,12.0,0.,12.0,0.,12.0
1979-07-04 01:09:01.530 ,4,1,0.,12.0,0.,12.0,0.,12.0,0.,12.0
1979-07-04 01:09:13.530 ,0,1,0.,12.0,0.,12.0,0.,12.0,0.,12.0
1979-07-04 01:09:25.530 ,0,1,0.,12.0,0.,12.0,0.,12.0,1.,12.0
1979-07-04 01:09:37.530 ,3,1,0.,12.0,0.,12.0,0.,12.0,0.,12.0
1979-07-04 01:09:49.530 ,3,1,0.,12.0,0.,12.0,0.,12.0,0.,12.0
1979-07-04 01:10:01.530 ,7,1,0.,12.0,0.,12.0,0.,12.0,0.,12.0
1979-07-04 01:10:13.530 ,7,1,0.,12.0,0.,12.0,0.,12.0,0.,12.0
1979-07-04 01:10:25.530 ,4,1,0.,12.0,0.,12.0,0.,12.0,0.,12.0
1979-07-04 01:10:37.530 ,4,1,0.,12.0,0.,12.0,0.,12.0,0.,12.0
1979-07-04 01:10:49.530 ,0,1,0.,12.0,0.,12.0,0.,12.0,0.,12.0
1979-07-04 01:11:01.530 ,0,1,0.,12.0,0.,12.0,0.,12.0,0.,12.0
1979-07-04 01:11:13.530 ,3,1,0.,12.0,0.,12.0,0.,12.0,0.,12.0
1979-07-04 01:11:25.530 ,3,1,0.,12.0,0.,12.0,0.,12.0,0.,12.0
1979-07-04 01:11:37.530 ,7,1,0.,12.0,0.,12.0,0.,12.0,1.,12.0
1979-07-04 01:11:49.530 ,7,1,0.,12.0,0.,12.0,0.,12.0,0.,12.0
1979-07-04 01:12:01.530 ,4,1,0.,12.0,0.,12.0,0.,12.0,0.,12.0
1979-07-04 01:12:13.530 ,4,1,0.,12.0,0.,12.0,0.,12.0,0.,12.0
1979-07-04 01:12:25.530 ,0,1,0.,12.0,0.,12.0,0.,12.0,0.,12.0
1979-07-04 01:12:37.530 ,0,1,0.,12.0,0.,12.0,0.,12.0,0.,12.0
1979-07-04 01:12:49.530 ,3,1,0.,12.0,0.,12.0,0.,12.0,0.,12.0
1979-07-04 01:13:01.530 ,3,1,0.,12.0,0.,12.0,0.,12.0,0.,12.0
1979-07-04 01:13:13.530 ,7,1,0.,12.0,0.,12.0,0.,12.0,0.,12.0
1979-07-04 01:13:25.530 ,7,1,0.,12.0,0.,12.0,0.,12.0,0.,12.0
1979-07-04 01:13:37.530 ,4,1,0.,12.0,0.,12.0,0.,12.0,0.,12.0
1979-07-04 01:13:49.530 ,4,1,0.,12.0,0.,12.0,0.,12.0,0.,12.0
1979-07-04 01:14:01.530 ,0,1,0.,12.0,0.,12.0,0.,12.0,0.,12.0
1979-07-04 01:14:13.530 ,0,1,0.,12.0,0.,12.0,0.,12.0,0.,12.0
1979-07-04 01:14:25.530 ,3,1,0.,12.0,0.,12.0,0.,12.0,0.,12.0
1979-07-04 01:14:37.530 ,3,1,1.,12.0,0.,12.0,0.,12.0,0.,12.0
1979-07-04 01:14:49.530 ,7,1,0.,12.0,0.,12.0,0.,12.0,0.,12.0
1979-07-04 01:15:01.530 ,7,1,0.,12.0,0.,12.0,0.,12.0,0.,12.0
1979-07-04 01:15:13.530 ,4,1,0.,12.0,0.,12.0,0.,12.0,0.,12.0
1979-07-04 01:15:25.530 ,4,1,0.,12.0,0.,12.0,0.,12.0,0.,12.0
1979-07-04 01:15:37.530 ,0,1,0.,12.0,0.,12.0,0.,12.0,0.,12.0
1979-07-04 01:15:49.530 ,0,1,0.,12.0,0.,12.0,0.,12.0,0.,12.0
1979-07-04 01:16:01.530 ,3,1,0.,12.0,0.,12.0,0.,12.0,0.,12.0
1979-07-04 01:16:13.530 ,3,1,0.,12.0,0.,12.0,0.,12.0,0.,12.0
1979-07-04 01:16:25.530 ,7,1,0.,12.0,0.,12.0,0.,12.0,0.,12.0
1979-07-04 01:16:37.530 ,7,1,0.,12.0,0.,12.0,0.,12.0,0.,12.0
1979-07-04 01:16:49.530 ,4,1,0.,12.0,0.,12.0,0.,12.0,0.,12.0
1979-07-04 01:17:01.530 ,4,1,0.,12.0,0.,12.0,0.,12.0,0.,12.0
1979-07-04 01:17:13.530 ,0,1,0.,12.0,0.,12.0,0.,12.0,0.,12.0
1979-07-04 01:17:25.530 ,0,1,0.,12.0,0.,12.0,0.,12.0,0.,12.0